Regional Weather Roundup
Issued by NWS

Home | Current Version | Previous Version | Graphics & Text | Print | Product List | Glossary On
Versions: 1 2 3 4 5 6 7 8 9 10 11 12 13 14 15 16 17 18 19 20 21 22 23 24 25 26 27 28 29 30 31 32 33 34 35 36 37 38 39 40 41 42 43 44 45 46 47 48 49 50
000
ASUS45 KSLC 172010
RWRUT

UTAH REGIONAL WEATHER ROUNDUP
NATIONAL WEATHER SERVICE SALT LAKE CITY UT
200 PM MDT WED SEP 17 2014

UTZ001>011-023>025-172100-

NORTHERN UTAH

CITY           SKY/WX    TMP DP  RH WIND       PRES   REMARKS
HILL AFB       SUNNY     89  42  19 W3        30.00F
LOGAN          SUNNY     86  45  23 VRB3      29.97F
OGDEN          SUNNY     89  41  18 SW7       29.97F
PROVO AIRPORT  MOSUNNY   84  43  23 VRB5      30.00F
SALT LAKE CITY MOSUNNY   91  39  16 S10       29.94F
VERNAL         MOSUNNY   79  46  31 CALM      30.09F
WENDOVER       SUNNY     84  41  21 E9        29.94F
HEBER CITY     SUNNY     86  41  20 W5        30.05F
WEST JORDAN    SUNNY     90  43  19 SE13      29.99F

$$

UTZ012>022-026-027-172100-

SOUTHERN UTAH

CITY           SKY/WX    TMP DP  RH WIND       PRES   REMARKS
BRYCE CANYON   SUNNY     72  49  44 S12       30.25F
CEDAR CITY     PTSUNNY   83  47  28 SW9       30.06F
MILFORD        SUNNY     89  45  21 SW12G18   30.00F
MOAB/CYNLANDS  SUNNY     86  44  23 VRB3      30.00F
PRICE          SUNNY     84  38  19 VRB5      30.11F
ST GEORGE      CLEAR     91  54  27 NW7       29.90F
KANAB          PTSUNNY   84  50  30 NE9G17    30.06F

$$

REGIONAL REPORTS     COLORADO/ARIZONA

CITY           SKY/WX    TMP DP  RH WIND       PRES   REMARKS
CRAIG, CO      SUNNY     83  36  18 NE8       30.13F
GRAND JUNCTION SUNNY     81  40  23 SW5       30.04F
RIFLE          SUNNY     81  42  25 CALM      30.08F
MONTROSE       SUNNY     83  45  26 NW8       30.10F
CORTEZ         SUNNY     80  52  37 SW9       30.14F
PAGE, AZ       SUNNY     87  53  31 NE8       30.02F
GRAND CANYON   MOSUNNY   72  49  44 NE14G22   30.18F
KINGMAN        LGT RAIN  78  61  55 CALM      29.98R
FLAGSTAFF      LGT RAIN  58  56  93 E8        30.22F

$$

REGIONAL REPORTS    NEVADA/IDAHO/WYOMING

CITY           SKY/WX    TMP DP  RH WIND       PRES   REMARKS
LAS VEGAS, NV  MOSUNNY   92  55  28 VRB3      29.83F HX  90
ELY            NOT AVBL
ELKO           SUNNY     88  36  15 SW6       29.97F
POCATELLO, ID  SUNNY     92  39  15 VRB7G18   29.94F
BURLEY         MOSUNNY   87  45  23 NW5       29.90F
EVANSTON, WY   SUNNY     77  40  26 E18       30.18F
ROCK SPRINGS   SUNNY     77  34  21 NW6       30.17F

$$



USA.gov is the U.S. government's official web portal to all federal, state and local government web resources and services.